Other Public Products
Issued by NWS Grand Forks, ND

Home | Current Version | Previous Version | Text Only | Print | Product List | Glossary On
Versions: 1 2 3 4 5 6 7 8 9 10 11 12 13 14 15 16 17 18 19 20 21 22 23 24 25 26 27 28 29 30 31 32 33 34 35 36 37 38 39 40 41 42 43 44 45 46 47 48 49 50
000
FPUS83 KFGF 190531
OPUFGF
PRAIRIE TO PINES WEATHER ROUNDUP
NATIONAL WEATHER SERVICE EASTERN NORTH DAKOTA/GRAND FORKS ND
1100 PM CST THU JAN 18 2018

 **SATELLITE DATA USED TO AUGMENT SKY COVER AT AUTOMATED STATIONS**
 *****  WEATHER ACROSS EASTERN NORTH DAKOTA  *****

CITY           SKY/WX    TMP DP  RH WIND       PRES   REMARKS
GRAND FORKS    MOCLDY    27  23  85 S12       29.53F WCI  17
GRND FORKS AFB FAIR      25  21  84 SW12      29.52F WCI  15
GRND FORKS NWS   N/A     27 N/A N/A S7          N/A  WCI  19
BUXTON           N/A     26  26  99 S8          N/A  WCI  18
DEVILS LAKE    FAIR      30  26  85 SW9       29.53S WCI  22
FARGO          FAIR      32  26  78 S12         N/A  WCI  23
WAHPETON ARPT  FAIR      28  23  80 S7        29.65F WCI  21
$$

 *****  WEATHER ACROSS CENTRAL AND WESTERN NORTH DAKOTA  *****

CITY           SKY/WX    TMP DP  RH WIND       PRES   REMARKS
JAMESTOWN      FAIR      35  27  72 SW7       29.58F
BISMARCK       FAIR      24  21  88 SE3       29.61F
MINOT          CLOUDY    42  30  62 NW14      29.54R
MINOT AFB      CLOUDY    38  31  74 W13       29.52F
GARRISON         N/A     34  28  79 CALM      29.56F
WILLISTON      MOCLDY    37  27  65 SW6       29.58R
DICKINSON      FAIR      38  29  70 W14       29.59F
HETTINGER      FAIR      34  27  75 NW9       29.66F
$$

 *****  OTHER OBSERVATIONS NORTHEAST NORTH DAKOTA  *****

CITY           SKY/WX    TMP DP  RH WIND       PRES   REMARKS
WALHALLA       FAIR      37  28  70 W16G24    29.44F
LANGDON        FAIR      28  28 100 SW14      29.48F WCI  17
CAVALIER         N/A     27  25  93 S9        29.46F WCI  17
GRAFTON        FAIR      25  23  93 S12       29.52F WCI  14
CANDO          FAIR      32  30  93 W15       29.53R WCI  22
FORT TOTTEN      N/A     32  26  78 S6        29.95S
ROLLA          FAIR      39  30  70 W15       29.48F
RUGBY          FAIR      27  25  93 N5        29.52F WCI  21
 ***** THE ABOVE OBSERVATIONS ARE NON NWS ARE NOT QUALITY
        CONTROLLED AND MAY MIS-REPORT RAIN FOR SNOW...
$$

 *****  OTHER OBSERVATIONS SOUTHEAST NORTH DAKOTA *****

CITY           SKY/WX    TMP DP  RH WIND       PRES   REMARKS
COOPERSTOWN    FAIR      25  23  93 S7        29.57F WCI  17
VALLEY CITY    FAIR      28  28 100 S9        29.60S WCI  20
OAKES            N/A     30  27  86 S16       29.63F WCI  19
GWINNER          N/A     32  27  80 SW17      29.61F WCI  21
SHEYENNE NWR     N/A     32  29  90 SW9       29.95S WCI  24
BUFFALO          N/A     32  24  72 E10         N/A  WCI  24
WYNDMERE       NOT AVBL
 ***** THE ABOVE OBSERVATIONS ARE NON NWS ARE NOT QUALITY
       CONTROLLED AND MAY MIS-REPORT RAIN FOR SNOW...
$$

  *****  WEATHER ACROSS NORTHERN MINNESOTA  *****

CITY           SKY/WX    TMP DP  RH WIND       PRES   REMARKS
FLAG ISLAND    FAIR      21  19  93 SE14      29.50S WCI   8
WARROAD        FAIR      27  21  80 SW7       29.50S WCI  19
ROSEAU         FAIR      27  21  80 S10       29.49F WCI  17
HALLOCK        FAIR      25  21  86 S15       29.49F WCI  12
THF RVR FALLS  FAIR      29  24  82 S16       29.55F WCI  17
HALSTAD        NOT AVBL
FOSSTON        FAIR      28  23  80 S14       29.58F WCI  17
BAUDETTE       FAIR      25  22  88 S7        29.51F WCI  17
WASKISH        FAIR      28  23  80 S7        29.55F WCI  21
CROOKSTON      FAIR      28  25  86 S17       29.57F WCI  16
$$
  *****  WEATHER ACROSS CENTRAL AND WEST MINNESOTA  *****

CITY           SKY/WX    TMP DP  RH WIND       PRES   REMARKS
BEMIDJI        FAIR      26  20  75 S5        29.59F WCI  21
PARK RAPIDS    FAIR      25  19  78 S7        29.61F WCI  17
WADENA         FAIR      25  21  86 S3        29.64S
DETROIT LAKES  FAIR      30  27  86 S5        29.63F
MOORHEAD       FAIR      28  23  80 S10       29.62F WCI  19
FERGUS FALLS   FAIR      27  23  86 S7        29.66R WCI  19
ELBOW LAKE     FAIR      28  25  90 S8        29.67S WCI  19
MORRIS MN      FAIR      28  27  93 S7        29.68R WCI  21
STAPLES        FAIR      25  21  86 S5        29.66S WCI  19
WHEATON        NOT AVBL
$$
  *****  WEATHER ELSEWHERE ACROSS MINNESOTA  *****

CITY           SKY/WX    TMP DP  RH WIND       PRES   REMARKS
DULUTH         FAIR      27  23  85 W6        29.65F WCI  20
INTRNTL FALLS  FAIR      24  21  88 SE5       29.57F WCI  18
ELY            FAIR      25  23  93 CALM      29.62F
CLOQUET        FAIR      28  21  74 S3        29.65F
BRAINERD       FAIR      26  20  77 S6        29.66F WCI  19
HIBBING        FAIR      17  15  92 CALM      29.63F
ALEXANDRIA     FAIR      31  26  82 SW6       29.67S
SAINT CLOUD    FAIR      26  24  92 S3        29.71R
MINNEAPOLIS    MOCLDY    32  28  85 S6        29.74F
$$

  *****  WEATHER ACROSS SOUTH DAKOTA  *****

CITY           SKY/WX    TMP DP  RH WIND       PRES   REMARKS
SIOUX FALLS    CLOUDY    34  29  82 SW8       29.77F
BROOKINGS      FAIR      32  27  81 S7        29.73F
WATERTOWN      FAIR      29  27  92 S7        29.70S WCI  22
HURON          FAIR      32  28  85 SE7       29.71F
SISSETON         N/A     40  27  59 SW6       29.66R
ABERDEEN       FAIR      28  24  85 S7        29.68F WCI  21
MITCHELL       FAIR      32  28  85 S7        29.74F
PIERRE         FAIR      25  23  92 CALM      29.68F
MOBRIDGE       FAIR      31  24  75 SE7       29.63F WCI  24
RAPID CITY     FAIR      49  27  42 NW15      29.70F
$$

  *****  SOME WEATHER IN NEARBY STATES *****

CITY           SKY/WX    TMP DP  RH WIND       PRES   REMARKS
GLASGOW MT     CLOUDY    38  30  73 W3        29.59S
GREAT FALLS MT LGT RAIN  37  33  85 W10G18    29.70R
CHEYENNE WY    FAIR      51  16  24 W20G29    29.94F
SCOTTSBLUFF NE FAIR      36  30  79 E6        29.84F
OMAHA NE       MOCLDY    26  20  77 S10       29.88F WCI  16
DES MOINES IA  FAIR      30  21  69 S7        29.91F WCI  23
DAVENPORT IA   FAIR      32  20  61 SW15      29.99F WCI  22
CHICAGO IL     FAIR      30  19  63 SW13      29.97F WCI  20
EAU CLAIRE WI  FAIR      25  21  85 S5        29.77F WCI  19
LA CROSSE WI   FAIR      28  20  71 S9        29.84F WCI  19
$$

  *****  SOME NATIONAL WEATHER *****

CITY           SKY/WX    TMP DP  RH WIND       PRES   REMARKS
LA GUARDIA NY  FAIR      27  12  53 NW10      30.07F WCI  17
RALEIGH NC     FAIR      22  20  92 SW6       30.24F WCI  14
ATLANTA GA     FAIR      29  13  51 W8        30.32S WCI  21
NEW ORLEANS LA FAIR      32  24  72 CALM      30.42F
OKLAHOMA CITY  FAIR      29  14  53 S9        30.18R WCI  20
ALBUQUERQUE NM MOCLDY    34  10  37 CALM      30.19R
SALT LAKE CITY FAIR      52  29  41 SE8       29.92F
LOS ANGELES CA MOCLDY    60  58  92 W7        30.05R
BOISE ID       LGT RAIN  39  37  92 N5        29.84F
SEATTLE WA     MOCLDY    42  36  79 CALM      29.80R
$$

*** WEATHER ACROSS MANITOBA...SASKATCHEWAN AND ONTARIO ***
                ***ONTARIO***

CITY           SKY/WX    TMP DP  RH WIND       PRES   REMARKS
GERALDTON      LGT SNOW  16  14  93 E5        29.63F WCI   9
THUNDER BAY    CLOUDY    27  25  93 E2        29.65F
SIOUX LOOKOUT  CLOUDY    21  19  93 SW8G17    29.53F WCI  12
TORONTO        PTCLDY    23  16  74 SW8       29.89F WCI  14
BIG TROUT LK   FLURRIES   7   3  85 SE8       29.56F WCI  -6
PICKLE LAKE    NOT AVBL
DRYDEN         CLOUDY    21  21 100 S8        29.52F WCI  12
KENORA         FLURRIES  23  21  93 S10       29.49F WCI  12
$$
                *** MANITOBA***

CITY           SKY/WX    TMP DP  RH WIND       PRES   REMARKS
BRANDON        CLOUDY    34  28  80 W21       29.41R WCI  22
DAUPHIN        CLEAR     41  32  70 W13G23    29.31R
ISLAND LAKE    FLURRIES  14  10  85 SE7       29.44F WCI   4
PILOT MOUND      N/A     30  25  80 SW13        N/A  WCI  20
THE PAS        FLURRIES  12   9  85 E7        29.26F WCI   2
THOMPSON       LGT SNOW   7   3  85 NE7       29.43S VSB 1   WCI  -5
WINNIPEG       CLOUDY    23  18  80 S15       29.43F WCI  10
LYNN LAKE      LGT SNOW   7   5  92 E8        29.40R VSB 3/4 WCI  -6
CHURCHILL      FLURRIES   0  -4  85 E5        29.72S WCI -10
GILLAM         FLURRIES   0  -4  85 E6        29.55  WCI -12
$$
                ***SASKATCHEWAN***

CITY           SKY/WX    TMP DP  RH WIND       PRES   REMARKS
ESTEVAN        CLOUDY    39  30  70 W16       29.49F
KINDERSLEY     CLOUDY    36  30  80 W21G28    29.37F
LLOYDMINSTER   MOCLDY    34  27  75 W12       29.30F
PRINCE ALBERT  CLOUDY    18  16  93 CALM      29.28F
REGINA         PTCLDY    34  28  80 SW10      29.43S
YORKTON        MOCLDY    37  32  81 W20G26    29.30F



USA.gov is the U.S. government's official web portal to all federal, state and local government web resources and services.